LiveATC.Net - Listen to live air traffic control over the Internet!


ICAO: KHWV  IATA: HWV   Airport: Brookhaven Airport
City: Shirley   State/Province: New York
Country: United States   Continent: North America
KHWV METAR Weather: KHWV 261956Z AUTO 19009KT 10SM CLR 28/13 A3007 RMK AO2 SLP183 T02780128 TSNO
KHWV Flight Activity (FlightAware)
KHWV Airport Info   (AirNav) (iFlightPlanner)
KHWV VFR Sectional Chart   (iFlightPlanner) 
KHWV IFR Low Chart   (iFlightPlanner) 
KHWV CTAF
Feed Status: DOWN
Last heard on: 2016-05-10 16:05:04 (16 days 4 hours 24 minutes ago)
KHWV CTAF Audio Archives
FacilityFrequency
Brookhaven CTAF122.800
Emergency/Guard121.500

Sponsored by Stephen Trapp and Long Islsnd Soaring Association (LISA)

NOTICE

Unauthorized use prohibited. See LiveATC.net Terms of Service


Find LiveATC Audio Streams


Airport/ARTCC Code

Frequency
(e.g., 124.400, 128.75)
Site-wide search

Browse LiveATC Feeds
LiveATC Coverage Map
Top 50 LiveATC Feeds
Bad Weather Areas

LiveATC FAQ
Offer a LiveATC Feed
Contact LiveATC.net
Press Inquiries

LiveATC on iPhone
LiveATC on Android

Windows Phone
Windows 8/10

LiveATC Mobile
(Mobile browser)

ATC Audio Archives
Interesting Recordings

LiveATC Forums


Home Page
About LiveATC.net
Make a Donation
LiveATC Store

Terms of Use
Privacy Policy

Canadian Air Freqs

AIRMETs/SIGMETs

FAA Airport Status
Nat'l Airspace Status
Arrival Demand Charts


Server Software By:
Icecast.org
Liquidsoap